AV636 Weather Reports


Display with metric or nautical units.
time (UTC)temp
F
wind
direction
speed
MPH
gust
MPH
rain 1hr
in
rain 24hr
in
rain mn
in
humidity
%
barometer
mb
20260507135137 53 248 11.0 13.0 0.00 0.00 0.00 71 1018.0
20260507134117 52 248 11.0 14.0 0.00 0.00 0.00 72 1018.0
20260507133117 51 248 15.0 19.0 0.00 0.00 0.00 72 1018.0
20260507132117 50 248 12.0 15.0 0.00 0.00 0.00 73 1018.0
20260507131117 49 248 8.0 12.0 0.00 0.00 0.00 74 1018.0
20260507130117 48 248 8.0 12.0 0.00 0.00 0.00 76 1017.9
20260507125117 47 248 7.0 11.0 0.00 0.00 0.00 78 1017.9
20260507124118 46 248 6.0 8.0 0.00 0.00 0.00 80 1017.7
20260507123116 44 248 3.0 4.0 0.00 0.00 0.00 81 1017.7
20260507122117 43 248 5.0 8.0 0.00 0.00 0.00 81 1017.6
20260507121117 42 248 5.0 7.0 0.00 0.00 0.00 81 1017.5
20260507120117 42 225 2.0 2.0 0.00 0.00 0.00 80 1017.5
20260507115137 42 225 2.0 3.0 0.00 0.00 0.00 80 1017.4
20260507114137 42 248 2.0 3.0 0.00 0.00 0.00 79 1017.6
20260507113116 42 270 2.0 2.0 0.00 0.00 0.00 79 1017.6
20260507112137 42 248 2.0 3.0 0.00 0.00 0.00 79 1017.6
20260507111117 42 248 3.0 3.0 0.00 0.00 0.00 78 1017.5
20260507110116 43 248 3.0 4.0 0.00 0.00 0.00 78 1017.5
20260507105117 43 225 3.0 4.0 0.00 0.00 0.00 78 1017.6
20260507104137 43 248 3.0 3.0 0.00 0.00 0.00 78 1017.6
20260507103116 43 248 3.0 4.0 0.00 0.00 0.00 78 1017.6
20260507102116 44 248 2.0 3.0 0.00 0.00 0.00 78 1017.8
20260507101116 44 248 3.0 4.0 0.00 0.00 0.00 78 1017.7
20260507100116 44 248 4.0 6.0 0.00 0.00 0.00 77 1017.8
20260507095157 44 248 4.0 7.0 0.00 0.00 0.00 77 1017.9
20260507094116 45 270 5.0 7.0 0.00 0.00 0.00 76 1018.1
20260507093116 45 270 3.0 4.0 0.00 0.00 0.00 76 1018.1
20260507092116 46 270 5.0 6.0 0.00 0.00 0.00 76 1018.2
20260507091116 46 270 6.0 7.0 0.00 0.00 0.00 75 1018.4
20260507090116 46 270 6.0 8.0 0.00 0.00 0.00 75 1018.5
20260507085116 47 270 5.0 6.0 0.00 0.00 0.00 74 1018.6
20260507084116 47 293 4.0 6.0 0.00 0.01 0.00 74 1018.6
20260507083116 47 270 3.0 4.0 0.00 0.01 0.00 74 1018.5
20260507082116 47 248 3.0 4.0 0.00 0.02 0.00 73 1018.7
20260507081116 48 248 4.0 5.0 0.00 0.02 0.00 74 1018.7
20260507080116 48 248 3.0 4.0 0.00 0.02 0.00 73 1018.8
20260507075136 48 270 3.0 4.0 0.00 0.02 0.00 73 1018.8
20260507074116 48 270 3.0 4.0 0.00 0.02 0.00 72 1018.7
20260507073116 48 270 3.0 3.0 0.00 0.02 0.00 72 1018.8
20260507072116 48 270 3.0 4.0 0.00 0.02 0.00 71 1019.0
20260507071116 48 270 4.0 6.0 0.00 0.03 0.00 71 1019.0
20260507070136 49 270 4.0 6.0 0.00 0.05 0.00 71 1019.2
20260507065116 49 270 3.0 6.0 0.00 0.06 0.00 72 1019.1
20260507064116 49 270 3.0 4.0 0.00 0.06 0.00 72 1019.3
20260507063116 49 270 3.0 4.0 0.00 0.06 0.00 72 1019.2
20260507062116 49 270 5.0 6.0 0.00 0.06 0.00 72 1019.1
20260507061116 49 270 5.0 6.0 0.00 0.07 0.00 72 1019.2
20260507060136 49 270 3.0 4.0 0.00 0.07 0.00 72 1019.1
20260507055116 48 270 4.0 6.0 0.00 0.07 0.00 72 1019.0
20260507054116 48 270 4.0 6.0 0.00 0.08 0.00 74 1019.1
20260507053116 48 270 3.0 4.0 0.00 0.08 0.00 75 1019.1
20260507051117 47 270 4.0 4.0 0.00 0.08 0.00 77 1019.0
20260507050116 46 270 3.0 4.0 0.00 0.08 0.00 77 1018.9
20260507045156 46 270 3.0 4.0 0.00 0.08 0.08 77 1018.8
20260507044115 46 270 3.0 4.0 0.00 0.08 0.08 77 1018.9
20260507043155 46 0.0 0.0 0.00 0.08 0.08 76 1018.8
20260507042115 46 0.0 0.0 0.00 0.08 0.08 77 1018.6
20260507041135 46 0.0 0.0 0.00 0.08 0.08 76 1018.6
20260507040115 46 0.0 0.0 0.00 0.08 0.08 76 1018.7
20260507035115 46 158 2.0 3.0 0.00 0.08 0.08 75 1018.7
20260507034135 47 158 1.0 2.0 0.00 0.08 0.08 74 1018.9
20260507033115 48 90 2.0 3.0 0.00 0.08 0.08 72 1018.9
20260507032115 49 0.0 0.0 0.00 0.08 0.08 69 1019.0
20260507031115 50 0.0 0.0 0.00 0.08 0.08 69 1018.8
20260507030117 51 0.0 0.0 0.00 0.08 0.08 67 1018.9
20260507025117 52 0.0 0.0 0.00 0.08 0.08 67 1019.0
20260507024117 52 0.0 0.0 0.00 0.08 0.08 63 1018.7
20260507023137 53 0.0 0.0 0.00 0.08 0.08 66 1018.6
20260507022117 53 0.0 0.0 0.00 0.08 0.08 65 1018.4
20260507021117 54 338 1.0 2.0 0.00 0.08 0.08 62 1018.5
20260507020117 54 0 2.0 3.0 0.00 0.08 0.08 60 1018.4
20260507015117 54 0 2.0 3.0 0.00 0.08 0.08 59 1018.0
20260507014117 55 0 4.0 6.0 0.00 0.08 0.08 58 1017.9
20260507013117 55 0 2.0 3.0 0.00 0.08 0.08 56 1017.9
20260507012117 56 0 2.0 3.0 0.00 0.08 0.08 56 1017.9
20260507011117 56 0 2.0 3.0 0.00 0.08 0.08 55 1017.8
20260507010117 57 23 3.0 3.0 0.00 0.08 0.08 54 1017.8
20260507005134 57 23 3.0 4.0 0.00 0.08 0.08 53 1017.8
20260507004516 57 338 3.0 4.0 0.00 0.08 0.08 53 1017.8
20260507003516 58 0 3.0 6.0 0.00 0.08 0.08 52 1017.6
20260507002516 58 0 6.0 10.0 0.00 0.08 0.08 52 1017.7
20260507001516 58 45 4.0 6.0 0.00 0.08 0.08 53 1017.7
20260507000516 59 23 4.0 6.0 0.00 0.08 0.08 52 1017.5
20260506235536 59 45 6.0 10.0 0.00 0.08 0.08 51 1017.5
20260506234516 59 45 3.0 4.0 0.00 0.08 0.08 53 1017.6
20260506233516 58 23 5.0 8.0 0.00 0.08 0.08 53 1017.6
20260506232516 59 338 6.0 8.0 0.00 0.08 0.08 50 1017.5
20260506231516 59 23 9.0 14.0 0.00 0.08 0.08 53 1017.6
20260506230516 59 338 5.0 8.0 0.00 0.08 0.08 51 1017.8
20260506225516 60 23 6.0 9.0 0.00 0.08 0.08 52 1017.8
20260506224515 59 45 5.0 7.0 0.00 0.08 0.08 53 1017.6
20260506223515 60 68 8.0 11.0 0.00 0.08 0.08 52 1017.6
20260506222515 59 23 5.0 10.0 0.00 0.08 0.08 52 1017.4
20260506221516 60 0 9.0 10.0 0.00 0.08 0.08 53 1017.5
20260506220516 59 45 7.0 10.0 0.00 0.08 0.08 53 1017.4
20260506215535 59 23 6.0 10.0 0.00 0.08 0.08 55 1017.7
20260506214535 59 45 6.0 9.0 0.00 0.08 0.08 53 1017.8
20260506213536 60 23 5.0 11.0 0.00 0.08 0.08 52 1017.9
20260506212515 59 338 6.0 9.0 0.00 0.08 0.08 53 1017.7
20260506211516 60 90 4.0 8.0 0.00 0.08 0.08 51 1017.8
20260506210515 60 90 6.0 10.0 0.00 0.08 0.08 51 1017.9
20260506205515 61 45 7.0 11.0 0.00 0.08 0.08 50 1018.2
20260506204515 61 68 5.0 9.0 0.00 0.08 0.08 51 1018.3
20260506203516 60 45 5.0 8.0 0.00 0.08 0.08 53 1018.3
20260506202515 60 45 7.0 11.0 0.00 0.08 0.08 53 1018.4
20260506201515 61 68 8.0 13.0 0.00 0.08 0.08 48 1018.8
20260506200515 61 23 5.0 8.0 0.00 0.08 0.08 51 1018.9
20260506195515 60 90 4.0 8.0 0.00 0.08 0.08 56 1019.0
20260506194515 59 45 2.0 4.0 0.00 0.08 0.08 56 1019.1
20260506193515 59 23 5.0 10.0 0.00 0.08 0.08 55 1019.1
20260506192535 59 45 1.0 9.0 0.00 0.08 0.08 56 1019.0
20260506191515 59 338 7.0 11.0 0.00 0.08 0.08 56 1019.3
20260506190535 58 45 7.0 11.0 0.00 0.08 0.08 58 1018.9
20260506185515 58 68 7.0 14.0 0.00 0.08 0.08 57 1019.1
20260506184515 57 23 4.0 6.0 0.00 0.08 0.08 54 1019.2
20260506183515 57 68 6.0 11.0 0.00 0.08 0.08 54 1019.4
20260506182515 57 45 5.0 8.0 0.00 0.08 0.08 56 1019.4
20260506181515 56 45 11.0 16.0 0.00 0.08 0.08 61 1019.4
20260506180515 56 45 3.0 4.0 0.00 0.08 0.08 60 1019.5
20260506175515 55 23 5.0 9.0 0.00 0.08 0.08 61 1019.6
20260506174515 55 45 7.0 10.0 0.00 0.08 0.08 64 1019.9
20260506173515 54 23 5.0 10.0 0.00 0.08 0.08 63 1020.0
20260506172515 54 23 4.0 10.0 0.00 0.08 0.08 62 1019.9
20260506171535 54 23 7.0 10.0 0.00 0.08 0.08 65 1019.8
20260506170515 54 45 6.0 10.0 0.00 0.08 0.08 66 1019.8
20260506165515 53 23 10.0 13.0 0.00 0.08 0.08 69 1019.8
20260506164517 52 0 8.0 14.0 0.00 0.08 0.08 69 1019.7
20260506163517 52 338 6.0 9.0 0.00 0.08 0.08 69 1019.7
20260506162537 51 0 7.0 9.0 0.00 0.08 0.08 72 1019.8
20260506161517 51 338 9.0 13.0 0.00 0.08 0.08 71 1019.9
20260506160517 50 0 5.0 9.0 0.00 0.08 0.08 72 1019.9
20260506155517 50 0 6.0 8.0 0.00 0.08 0.08 72 1020.0
20260506154537 50 338 5.0 8.0 0.00 0.08 0.08 72 1020.1
20260506153517 50 23 4.0 5.0 0.00 0.08 0.08 73 1019.7
20260506152517 49 23 5.0 6.0 0.00 0.08 0.08 73 1019.6
20260506151517 49 23 7.0 10.0 0.00 0.08 0.08 73 1019.5
20260506150517 49 0 5.0 8.0 0.00 0.11 0.08 72 1019.7
20260506145517 49 23 5.0 10.0 0.00 0.11 0.08 73 1019.4
20260506144517 49 23 9.0 12.0 0.00 0.11 0.08 73 1019.1
20260506143517 48 23 6.0 10.0 0.00 0.11 0.08 73 1019.0
20260506142517 47 0 6.0 11.0 0.00 0.11 0.08 73 1019.1
20260506141637 47 0 4.0 7.0 0.00 0.11 0.08 74 1019.4
20260506140517 47 23 7.0 9.0 0.00 0.11 0.08 75 1019.0
20260506135517 47 45 4.0 6.0 0.00 0.11 0.08 77 1018.8